{"data":{"norad_id":61859,"intl_designator":"2024-202Q","name":"STARLINK-32466","alt_names":[],"object_type":"PAYLOAD","status":"ACTIVE","operator":null,"country":"US","launch_date":"2024-11-07","launch_site_code":"AFETR","launch_vehicle":null,"mission":null,"orbit_class":"UNKNOWN","rcs_meters":null,"size_class":null,"mass_kg":null,"dimensions":null,"purposes":["comms"],"wikipedia_slug":null,"has_3d_model":false,"image_url":null,"decayed_at":null,"tle_current":{"epoch":"2026-05-24T18:35:05.584416Z","epoch_age_seconds":87852,"freshness":"FRESH","line1":"1 61859U 24202Q   26144.77437019  .00001876  00000+0  77672-4 0  9998","line2":"2 61859  43.0025 168.3174 0001232 289.4169  70.6549 15.27581028 86972","mean_motion":15.27581028,"eccentricity":0.0001232,"inclination_deg":43.0025,"raan_deg":168.3174,"arg_perigee_deg":289.4169,"mean_anomaly_deg":70.6549,"bstar":7.7672e-5,"rev_number":8697,"period_min":94.266685275958,"perigee_km":482.20072009176,"apogee_km":483.89131558736,"semimajor_km":6861.1830178396,"source":"CELESTRAK","updated_at":"2026-05-25T13:38:19.452566Z"}}}